(2006 FH36) |
Classification: Aten [NEO] SPK-ID: 3329255 |
[ hide orbit diagram ]
For accurate long-term ephemerides, please instead use our Horizons system.This orbit viewer was implemented using two-body methods, and hence should not be used for determining accurate long-term trajectories (over several years or decades) or planetary encounter circumstances.
Orbital Elements at Epoch 2459200.5 (2020-Dec-17.0) TDB
Reference: JPL 36 (heliocentric ecliptic J2000)
Element | Value | Uncertainty (1-sigma) | Units |
e | .1985029581184125 | 1.0696e-07 | |
a | .9549844201266615 | 2.4675e-09 | au |
q | .7654171877745224 | 1.0248e-07 | au |
i | 1.587950632266833 | 3.8153e-06 | deg |
node | 278.3080387165454 | 0.0002362 | deg |
peri | 157.0071061710299 | 0.00023299 | deg |
M | 9.451942892194131 | 1.9568e-05 | deg |
tp | 2459191.550238856401 (2020-Dec-08.05023886) | 1.8528e-05 | TDB |
period | 340.873199134149 0.93 | 1.3211e-06 3.617e-09 | d yr |
n | 1.056111190068433 | 4.0932e-09 | deg/d |
Q | 1.144551652478801 | 2.9573e-09 | au |
|
| | Orbit Determination Parameters
Additional Information
|
[ show covariance matrix ]
Physical Parameter Table
Parameter |
Symbol |
Value |
Units |
Sigma |
Reference |
Notes |
absolute magnitude |
H |
23.1 |
|
n/a |
MPO545668 |
|
|
[ show close-approach data ]
|